Regional Weather Roundup
Issued by NWS

Home | Current Version | Previous Version | Graphics & Text | Print | Product List | Glossary On
Versions: 1 2 3 4 5 6 7 8 9 10 11 12 13 14 15 16 17 18 19 20 21 22 23 24 25 26 27 28 29 30 31 32 33 34 35 36 37 38 39 40 41 42 43 44 45 46 47 48 49 50
000
ASUS43 KFSD 300202
RWRSD

WEATHER ROUNDUP FOR SOUTH DAKOTA
NATIONAL WEATHER SERVICE SIOUX FALLS SD
900 PM CDT FRI MAY 29 2015

NOTE: "FAIR" INDICATES FEW OR NO CLOUDS BELOW 12,000 FEET WITH NO
SIGNIFICANT WEATHER AND/OR OBSTRUCTIONS TO VISIBILITY.


SDZ001>005-009-010-012>017-300300-
NORTHWEST AND NORTH CENTRAL SOUTH DAKOTA

CITY           SKY/WX    TMP DP  RH WIND       PRES   REMARKS
BUFFALO          N/A     52  39  61 E7        30.21S
FAITH            N/A     49  37  63 N8        30.27S
MOBRIDGE       MOCLDY    54  38  54 N7        30.23R
$$

SDZ012>016-024>037-041>051-057-063-072>074-300300-
SOUTHWEST AND SOUTH CENTRAL SOUTH DAKOTA

CITY           SKY/WX    TMP DP  RH WIND       PRES   REMARKS
RAPID CTY ARPT PTCLDY    52  41  66 N8        30.27S
PIERRE         MOCLDY    50  39  66 N9        30.23S
CUSTER         CLOUDY    45  40  82 SE6       30.29S
ELLSWORTH AFB  PTCLDY    54  40  58 N9        30.27S
PHILIP         MOCLDY    52  40  63 N8        30.26S
PINE RIDGE     CLOUDY    50  40  68 N5        30.28R
WINNER         MOCLDY    51  39  63 N12       30.23R
$$

SDZ004>011-016>023-039-040-300300-
NORTHEAST SOUTH DAKOTA

CITY           SKY/WX    TMP DP  RH WIND       PRES   REMARKS
ABERDEEN       CLOUDY    53  40  61 N15       30.21R
WATERTOWN      CLOUDY    48  41  76 N13       30.16R
BROOKINGS      CLOUDY    48  41  76 N14G21    30.15R
SISSETON         N/A     50  42  74 N16       30.16R
$$

SDZ017-020-022-023-036>040-048>070-300300-
SOUTHEAST SOUTH DAKOTA

CITY           SKY/WX    TMP DP  RH WIND       PRES   REMARKS
SIOUX FALLS    CLOUDY    50  44  80 N20       30.12R
HURON          CLOUDY    52  42  69 N12       30.18R
CHAMBERLAIN    CLOUDY    51  41  70 N8        30.22R
MITCHELL       CLOUDY    52  45  77 N13       30.18R
YANKTON        CLOUDY    52  45  76 NW20G29   30.12R
$$

ABBREVIATIONS USED IN REMARKS
   TC - TEMPERATURE IN CELSIUS
  WCI - WIND CHILL INDEX
   HX - HEAT INDEX
  VSB - VISIBILITY




USA.gov is the U.S. government's official web portal to all federal, state and local government web resources and services.